Content
SEND FEEDBACK

Daily
Averages
Monthly
Summary
United States of America

UKIAH, CALIFORNIA


Home > North America > United States > California
Elevation: 615 feet     Latitude: 39 08N     Longitude: 123 12W

WEATHER
 
SELECT A DAY
Number of Records: 219,966;   Date Range: 1/1/95 - 10/29/14
 
SHARE

PRINT THIS DATA

[ ← Previous Day ]
WEATHER ALMANAC - FEBRUARY 28, 2013
[ Next Day → ]
[ °C ]   °F
Weather ElementAverageHighLow
Temperature55.9 °F68 °F (1:56 pm)48 °F (6:56 am)
Dewpoint47.3 °F48.9 °F (10:56 am)45 °F (11:56 pm)
Humidity75.2 %93 % (1:56 am)49 % (2:56 pm)
Barometer30.42 in30.47 in (10:56 pm)30.38 in (3:56 am)
Wind Speed2.2 mph10.4 mph (1:56 pm)
Wind Gust16.1 mph (11:56 am)
Weather ElementAverage
Visibility10 mi
Wind DirectionESE (105 °)

Weather ElementTotal
Precipitation---
Heating Degree Days7 (Base 65)
Growing Degree Days8 (Base 50)
Averaged from 24 records on February 28, 2013
WEATHER CONDITIONS BREAKOUT
WIND DIRECTION BREAKOUT
WEATHER BY HOUR - FEBRUARY 28, 2013
[ °C ]   °F
Local TimeTemperatureDewpointHumidityBarometerVisibilityWind DirectionWind SpeedGust SpeedPrecipitationEventsConditions
1:56 AM48.9 °F46.9 °F93 %30.39 in10.0 miCalmOvercast
2:56 AM48.9 °F46.0 °F90 %30.39 in10.0 miCalmOvercast
3:51 AM48.2 °F46.4 °F93 %30.39 in10.0 miCalmOvercast
3:56 AM48.9 °F46.9 °F93 %30.38 in10.0 miCalmOvercast
4:56 AM50.0 °F46.9 °F89 %30.40 in10.0 miCalmOvercast
5:45 AM48.2 °F46.4 °F93 %30.41 in10.0 miCalmOvercast
5:56 AM48.9 °F46.0 °F90 %30.41 in10.0 miCalmOvercast
6:56 AM48.0 °F46.0 °F93 %30.42 in10.0 miCalmScattered Clouds
7:56 AM50.0 °F46.9 °F89 %30.43 in10.0 miCalmClear
8:56 AM53.1 °F46.9 °F80 %30.45 in10.0 miCalmClear
9:56 AM57.9 °F48.0 °F70 %30.45 in10.0 miCalmClear
10:56 AM62.1 °F48.9 °F62 %30.44 in10.0 miCalmClear
11:56 AM64.9 °F48.9 °F56 %30.43 in10.0 miNW (320°)6.9 mph16.1 mphPartly Cloudy
12:56 PM66.0 °F48.0 °F52 %30.41 in10.0 miWNW (300°)6.9 mphClear
1:56 PM68.0 °F48.9 °F50 %30.40 in10.0 miNNW (330°)10.4 mphClear
2:56 PM68.0 °F48.0 °F49 %30.39 in10.0 miNNW (330°)6.9 mphClear
3:56 PM68.0 °F48.0 °F49 %30.38 in10.0 miWNW (300°)6.9 mphClear
4:56 PM66.9 °F48.9 °F52 %30.38 in10.0 miWNW (290°)6.9 mphClear
5:56 PM63.0 °F48.9 °F60 %30.39 in10.0 miNorth (350°)4.6 mphClear
6:56 PM59.0 °F48.9 °F69 %30.42 in10.0 miCalmClear
7:56 PM55.9 °F48.0 °F75 %30.43 in10.0 miCalmClear
9:56 PM51.1 °F46.0 °F83 %30.46 in10.0 miCalmClear
10:56 PM50.0 °F46.0 °F86 %30.47 in10.0 miCalmClear
11:56 PM48.0 °F45.0 °F89 %30.46 in10.0 miWNW (300°)3.5 mphClear
Hourly data recorded from KUKI, located miles away from Ukiah, California







STORIES FROM OUR PARTNERS